Location: The Stocker AstroScience Center
(25.7579°N, 80.3725°W)
Time: 23:29:16
(UTC-05:00)

ISS - All Passes

Search period start: 19 December 2014 00:00
Search period end: 29 December 2014 00:00
Orbit: 404 x 415 km, 51.6° (Epoch: 19 December)

Date Brightness Start Highest point End Pass type
(mag) Time Alt. Az. Time Alt. Az. Time Alt. Az.
19 Dec - 13:04:12 10° SW 13:07:29 70° SE 13:10:46 10° NE daylight
19 Dec - 21:15:43 10° N 21:18:15 20° NE 21:20:46 10° E night (unlit)
19 Dec - 22:52:17 10° WNW 22:54:42 19° SW 22:57:06 10° S night (unlit)
20 Dec - 12:13:58 10° S 12:16:51 28° SE 12:19:45 10° ENE daylight
20 Dec - 13:51:21 10° W 13:53:26 16° NW 13:55:30 10° N daylight
20 Dec - 20:26:27 10° NNE 20:27:22 11° NE 20:28:16 10° NE night (unlit)
20 Dec - 22:00:58 10° NW 22:04:05 44° SW 22:07:12 10° SSE night (unlit)
21 Dec - 11:24:38 10° SSE 11:26:14 13° SE 11:27:50 10° E daylight
21 Dec - 12:59:35 10° WSW 13:02:33 30° NW 13:05:31 10° NNE daylight
21 Dec - 21:10:06 10° NW 21:13:21 71° NE 21:16:35 10° SE night (unlit)
22 Dec - 12:08:25 10° SW 12:11:43 71° NW 12:15:00 10° NE daylight
22 Dec - 20:19:35 10° NNW 20:22:30 30° NE 20:25:24 10° ESE night (unlit)
22 Dec - 21:57:18 10° W 21:58:48 13° SW 22:00:19 10° SSW night (unlit)
23 Dec - 11:17:44 10° SSW 11:20:54 45° SE 11:24:04 10° NE daylight
23 Dec - 12:56:33 10° WNW 12:57:37 11° NW 12:58:41 10° NNW daylight
23 Dec - 19:29:30 10° N 19:31:30 15° NE 19:33:31 10° E night (unlit)
23 Dec - 21:05:13 10° WNW 21:08:04 28° SW 21:10:54 10° S night (unlit)
24 Dec - 10:27:38 10° S 10:30:06 19° SE 10:32:33 10° ENE daylight
24 Dec - 12:03:56 10° W 12:06:32 21° NW 12:09:08 10° N daylight
24 Dec - 20:13:59 10° NW 20:17:14 71° SW 20:20:27 10° SE night (unlit)
25 Dec - 11:12:19 10° WSW 11:15:30 44° NW 11:18:40 10° NNE daylight
25 Dec - 19:23:07 10° NNW 19:26:15 45° NE 19:29:23 10° ESE visible
26 Dec - 10:21:12 10° SW 10:24:30 73° SE 10:27:47 10° NE daylight
26 Dec - 18:32:35 10° N 18:35:10 21° NE 18:37:43 10° E visible
26 Dec - 20:09:12 10° W 20:11:34 19° SW 20:13:56 10° S visible
27 Dec - 09:30:36 10° S 09:33:31 29° SE 09:36:25 10° ENE daylight
27 Dec - 11:08:02 10° W 11:10:04 15° NW 11:12:06 10° N daylight
27 Dec - 17:42:53 10° NNE 17:43:55 11° NE 17:44:56 10° ENE daylight
27 Dec - 19:17:29 10° NW 19:20:37 43° SW 19:23:43 10° SSE visible
28 Dec - 08:40:54 10° SSE 08:42:32 13° SE 08:44:10 10° E daylight
28 Dec - 10:15:53 10° WSW 10:18:50 30° NW 10:21:47 10° NNE daylight
28 Dec - 18:26:16 10° NW 18:29:32 72° NE 18:32:46 10° SE visible
